GFSCGP_500_spd_102.txt.gz
Wind_Speed
24 25 24 22 23 22 23 22 25 26 29 32 35 39 35 34 35 36 35 35 36 36 36 36 36 39 40 41 41 40 39 39 41 44 47 48 47 47 49 49 50 51 50 50
28 27 25 26 26 28 29 28 27 26 32 35 36 38 36 38 37 39 39 33 35 35 34 36 39 41 43 43 43 41 39 39 41 45 48 51 52 53 53 51 52 53 53 53
30 26 29 29 30 31 32 34 33 35 38 40 39 38 37 38 36 34 28 33 33 37 39 41 40 40 42 43 40 37 33 33 34 38 43 48 51 50 48 48 48 49 51 54
27 28 30 35 37 38 39 36 37 38 38 40 40 41 40 39 39 32 26 29 28 31 34 38 38 38 40 39 37 35 37 39 41 42 47 51 53 54 56 56 53 52 53 53
28 29 29 30 36 41 38 34 34 38 39 36 40 42 39 42 37 32 36 37 36 38 38 40 41 42 40 39 35 30 34 39 40 43 45 47 49 52 54 55 57 57 54 56
29 32 34 34 34 34 36 34 35 36 39 40 38 46 45 38 41 41 40 38 36 35 37 41 41 38 35 31 30 30 34 39 44 48 49 49 50 54 56 57 56 56 58 59
27 32 32 36 40 40 41 40 38 39 42 42 38 37 40 27 38 36 34 34 35 31 34 38 40 40 37 33 35 38 40 44 47 49 49 50 54 56 58 59 60 60 60 61
40 31 30 36 37 39 40 40 38 39 38 37 37 40 38 30 35 32 36 35 35 33 34 39 41 45 45 43 44 45 46 49 49 47 47 52 54 55 53 57 60 62 64 63
15 28 43 39 38 38 38 38 39 41 40 42 40 37 32 32 33 36 34 37 37 33 36 39 42 45 50 54 55 55 54 52 51 50 48 52 55 59 58 55 57 62 65 65
13 14 15 21 39 43 40 41 42 44 44 43 39 33 31 32 34 38 42 41 46 46 43 46 50 54 57 60 62 59 60 59 55 54 52 50 50 60 61 60 60 61 65 67
13 9 9 15 19 23 35 32 35 35 41 39 31 28 27 28 36 33 34 44 48 48 49 52 56 58 59 59 61 60 58 57 57 58 56 54 50 53 54 54 53 52 56 55
18 16 15 13 19 21 27 29 33 35 36 38 40 32 27 33 32 37 37 41 45 50 53 53 53 55 60 65 64 63 62 61 61 58 56 57 57 55 53 55 58 58 60 59
21 22 20 17 22 22 24 27 27 33 37 40 40 40 32 32 38 43 41 42 45 49 50 53 56 59 60 61 63 63 62 62 57 58 57 59 59 59 57 53 56 55 58 62
24 24 22 21 24 26 27 28 31 32 35 38 40 40 41 41 42 42 44 46 45 43 46 49 52 54 58 58 61 63 61 58 59 58 61 62 62 61 59 58 55 53 52 61
25 25 26 25 23 26 28 29 31 34 33 36 32 37 39 43 43 45 45 42 44 48 51 50 51 54 57 58 57 55 56 57 57 60 61 59 61 62 65 63 61 61 63 58
24 25 27 26 27 27 30 27 29 33 36 38 41 42 46 47 47 47 48 46 49 53 50 52 54 54 52 52 53 55 53 56 59 56 62 65 64 61 59 59 59 62 60 54
25 26 27 26 30 31 28 30 31 31 32 34 39 43 44 49 50 49 52 54 53 51 50 48 47 47 48 52 49 51 51 50 50 56 59 61 62 64 64 62 59 60 58 51
23 24 25 28 29 27 24 24 24 27 30 31 33 35 36 36 36 37 43 46 49 49 47 45 46 47 45 47 46 46 47 49 53 57 60 60 59 58 58 59 59 55 54 52
22 23 25 26 27 26 24 21 22 22 24 24 26 28 32 35 36 36 39 44 45 44 43 45 43 41 39 39 41 44 46 51 56 59 60 62 61 56 54 56 51 49 48 43
21 22 25 26 25 21 18 19 18 21 21 20 25 30 33 34 33 32 40 42 40 39 37 38 40 40 41 40 43 43 45 49 55 59 63 66 62 56 50 48 48 46 42 36
21 22 22 24 25 21 18 17 19 21 23 26 28 32 33 35 34 34 32 31 34 37 38 37 38 34 34 36 37 39 45 52 57 62 65 64 58 52 43 46 43 42 38 35
20 21 19 20 20 19 18 17 20 22 23 25 27 28 29 30 28 24 26 29 28 26 28 27 24 26 31 33 36 42 50 55 57 61 62 59 55 45 41 40 44 39 35 32
19 20 14 17 18 20 20 23 22 25 26 27 29 31 32 23 24 27 27 25 22 19 21 20 22 26 31 35 41 48 52 55 57 58 56 52 44 41 40 38 34 36 31 29
22 21 18 21 19 19 25 23 27 29 31 30 30 28 22 24 26 23 20 19 15 16 16 20 23 27 31 35 42 45 51 53 53 53 52 45 38 36 32 31 31 28 29 27
22 21 22 22 28 31 34 30 32 31 29 25 23 19 23 22 18 14 15 11 11 14 17 22 24 28 33 37 41 46 51 50 53 48 42 36 29 23 23 21 28 32 27 28
21 20 22 25 28 30 30 31 30 29 25 21 18 22 25 17 14 12 9 8 11 15 18 22 25 25 33 35 38 45 45 50 47 40 33 25 19 15 12 12 18 26 26 28

GFSCGP_500_spd_105.txt.gz
Wind_Speed
19 19 21 25 31 31 32 31 29 24 31 32 35 40 36 39 41 40 39 41 39 39 38 39 38 38 40 40 41 42 42 40 37 37 41 43 44 45 45 46 48 50 51 51
18 16 16 22 25 26 27 27 24 31 33 36 37 40 42 35 37 37 37 40 39 39 40 38 39 40 41 42 42 42 41 40 39 40 42 45 48 50 49 50 52 54 55 54
20 21 23 25 25 27 29 30 29 31 34 38 40 43 44 40 41 41 43 44 38 36 38 40 41 42 42 41 42 43 43 41 38 40 41 43 45 47 49 51 50 50 50 51
25 29 28 29 29 30 33 31 33 36 40 40 40 41 38 39 40 41 40 35 28 33 38 39 41 40 40 42 44 41 38 36 38 41 43 46 48 50 51 54 55 56 56 56
29 32 32 31 30 34 33 34 35 36 38 40 40 40 34 37 38 38 34 29 36 37 36 38 39 39 37 37 37 36 36 35 37 41 44 47 49 52 56 55 57 59 61 62
28 29 32 35 35 37 33 34 35 37 38 40 39 41 43 39 41 38 34 37 38 36 33 31 34 37 39 41 38 35 35 36 38 42 44 44 45 50 49 50 53 57 59 59
29 32 31 33 34 36 36 36 36 37 38 39 38 37 38 40 40 41 43 43 36 34 33 34 36 41 43 40 38 38 37 35 37 39 42 44 47 49 49 50 54 60 60 62
30 32 31 33 35 37 37 36 36 38 39 38 38 40 42 45 41 42 42 39 39 38 36 39 39 41 42 43 42 40 38 41 43 47 49 50 49 47 48 52 59 64 62 62
19 36 34 33 33 34 38 37 37 38 38 37 37 37 36 35 32 36 41 42 41 39 35 39 41 43 45 45 44 43 44 48 52 55 55 53 51 52 54 59 64 64 66 63
8 13 17 33 35 38 37 39 39 41 41 40 39 38 35 34 33 35 38 41 43 45 44 43 45 44 44 44 45 49 54 57 61 62 59 58 58 60 59 62 62 64 65 65
11 12 12 18 19 32 41 44 45 45 47 46 44 38 31 32 34 37 41 43 44 42 42 43 44 47 50 53 54 57 60 62 63 62 65 67 65 63 65 60 54 58 63 62
17 17 16 17 21 21 23 27 32 36 38 38 37 35 33 31 32 28 32 35 39 39 40 43 44 45 47 49 54 57 60 64 68 68 68 67 66 67 62 57 57 55 57 57
20 19 18 18 20 21 21 22 24 27 30 34 36 37 33 32 35 37 36 39 40 40 47 47 46 47 51 55 59 61 63 65 66 67 69 69 66 61 61 60 60 59 56 56
23 21 21 22 24 23 25 25 27 28 29 30 32 34 37 40 42 40 42 43 43 46 47 48 50 52 54 56 57 60 63 66 67 67 66 65 65 65 63 62 60 60 61 59
23 24 23 22 24 25 26 27 27 29 30 33 30 34 34 40 39 43 44 46 47 48 47 49 52 53 55 58 61 64 63 62 60 60 63 64 64 63 64 61 61 62 62 62
23 24 23 23 26 27 26 25 30 33 33 33 34 35 38 39 40 40 43 45 46 47 49 52 53 55 56 59 57 54 53 56 60 60 60 61 64 63 64 66 64 63 61 59
23 23 24 23 26 27 29 29 31 32 34 33 34 35 35 37 39 41 45 47 49 51 52 54 55 53 52 50 48 51 53 54 54 55 57 58 61 64 63 64 66 67 67 68
22 23 24 23 24 25 26 28 29 29 29 30 31 31 32 35 38 42 45 46 47 49 49 48 48 47 42 44 46 48 48 49 50 52 53 54 56 57 61 64 68 70 72 69
23 23 23 22 21 24 23 24 25 26 26 29 29 29 31 33 35 35 37 38 39 41 42 42 40 40 43 44 44 41 41 43 44 45 48 53 58 64 68 72 75 74 71 62
22 22 21 22 21 21 20 21 23 23 25 24 28 30 32 32 33 32 35 37 40 41 41 39 39 38 37 37 38 39 37 39 43 49 55 62 67 70 74 76 76 70 57 50
21 21 22 22 21 19 19 23 24 23 20 22 23 26 30 33 35 34 36 37 41 41 41 39 35 35 35 34 30 32 37 44 48 53 59 66 72 73 70 67 67 57 47 38
21 22 21 23 22 18 18 19 21 21 20 22 24 26 28 29 31 34 34 37 38 36 36 35 27 28 26 28 30 34 40 45 50 56 62 66 67 60 55 55 51 45 40 36
22 20 21 21 21 20 19 18 19 20 23 24 27 28 29 32 33 33 30 29 30 28 23 21 21 20 26 28 32 37 41 46 51 57 62 66 55 55 52 46 41 36 30 33
22 22 23 21 24 23 19 24 20 23 25 25 27 28 28 28 26 23 29 28 24 19 17 16 15 21 27 30 33 38 39 45 52 58 61 50 49 47 45 40 33 26 23 26
24 23 23 24 23 26 27 27 30 30 27 29 30 26 26 21 23 25 23 18 18 13 12 13 16 22 22 25 31 36 38 44 52 55 46 42 45 44 37 30 19 16 20 22
26 25 26 26 25 25 24 25 27 27 28 30 28 25 19 21 22 17 14 11 7 8 10 12 18 18 24 30 32 34 36 44 50 44 43 42 45 38 28 22 13 10 18 15

GFSCGP_500_spd_108.txt.gz
Wind_Speed
11 16 12 15 20 27 33 37 38 36 32 36 27 24 27 21 23 26 29 32 32 35 36 38 37 35 34 36 39 39 39 40 39 36 38 39 41 41 45 46 46 47 47 47
15 8 11 14 19 23 26 27 27 25 22 22 26 29 28 32 33 35 36 34 35 38 36 36 36 36 38 41 42 41 41 41 38 37 37 40 43 44 47 47 47 47 48 50
13 14 18 17 18 23 26 26 24 26 32 37 36 34 34 35 37 37 33 35 38 39 35 35 37 39 41 42 40 41 42 41 40 40 41 44 47 49 50 50 49 48 48 48
19 21 20 19 19 20 23 21 25 31 38 40 42 42 41 37 38 36 34 35 38 35 35 38 38 39 39 39 40 41 42 42 42 43 44 44 45 46 46 47 49 51 53 55
21 25 23 21 19 22 17 22 25 33 42 39 38 37 36 30 29 30 33 36 36 31 32 33 34 36 36 38 40 43 42 36 37 37 41 44 46 48 50 51 52 53 56 59
28 30 28 26 28 27 25 26 27 30 36 37 37 39 37 33 32 32 34 34 33 31 33 36 36 36 36 37 37 37 37 38 40 42 44 47 48 48 49 51 49 49 52 56
27 28 29 30 33 32 31 32 32 34 36 39 38 40 40 39 36 35 36 37 36 35 32 33 34 34 35 37 39 41 43 43 44 44 46 47 49 48 46 48 49 48 51 56
27 29 28 28 30 32 32 32 34 36 36 36 37 39 39 36 36 35 32 35 37 38 36 37 36 35 38 41 44 45 45 46 46 46 46 45 46 48 48 48 50 52 51 54
31 30 30 30 29 30 32 31 31 33 34 34 34 35 35 35 36 35 34 38 41 42 41 39 38 40 42 43 44 45 47 48 49 48 49 51 53 52 53 54 54 55 56 58
11 12 28 34 33 34 36 36 36 38 39 39 39 37 35 35 34 30 30 34 37 40 42 43 41 42 43 45 48 51 51 51 51 53 54 55 58 59 58 58 58 60 62 63
12 8 10 14 28 37 41 40 40 40 40 39 37 36 35 35 35 35 37 41 43 44 44 44 44 45 47 48 51 52 55 55 56 58 61 62 61 61 62 64 65 66 67 67
25 13 12 15 18 18 22 28 36 41 42 41 42 43 39 38 37 36 36 39 40 43 43 44 44 44 44 45 48 50 51 54 56 58 59 62 64 66 67 68 67 67 67 67
21 15 15 16 19 19 17 18 19 22 25 29 32 34 35 34 36 35 35 36 37 38 38 40 41 42 47 47 47 51 54 55 57 59 62 64 66 68 69 70 70 69 68 67
18 19 21 21 21 21 22 21 20 20 22 22 25 24 25 31 35 36 38 38 40 41 43 44 45 47 49 53 56 56 56 57 60 63 65 66 67 69 67 66 66 66 68 68
22 21 21 22 23 22 23 23 23 24 24 26 23 27 25 33 31 34 36 39 41 44 46 48 49 51 54 56 58 59 60 61 62 63 64 65 64 64 63 64 65 66 66 65
21 20 21 23 23 24 23 23 26 26 26 28 27 28 28 30 32 33 36 39 42 43 45 47 49 50 52 53 56 57 59 61 62 61 60 60 61 62 63 62 62 62 63 65
21 21 21 22 24 24 25 24 25 27 27 29 31 31 31 32 34 35 37 39 42 44 46 48 50 52 54 56 57 57 57 57 57 57 57 57 57 57 59 59 60 60 60 62
21 22 22 22 24 26 25 25 27 28 29 30 31 30 31 32 33 34 36 38 40 43 46 48 51 54 55 55 55 52 48 48 50 50 50 53 54 53 53 56 60 65 69 72
20 21 21 22 22 24 23 24 25 26 27 27 28 28 29 31 32 34 35 35 37 39 41 44 46 49 47 45 42 40 43 44 44 43 44 45 49 53 58 62 66 70 73 74
21 21 21 21 22 22 21 23 25 24 23 23 25 26 28 28 28 30 32 34 35 38 40 42 42 39 36 34 35 34 33 32 35 40 44 49 54 58 61 66 69 69 64 60
21 21 21 21 21 21 21 23 24 24 21 22 24 25 25 25 28 30 35 37 39 40 40 42 39 35 33 29 27 26 28 32 35 41 46 50 54 60 66 68 61 59 62 60
20 22 20 22 21 20 21 24 24 22 20 21 22 23 24 25 29 32 36 36 37 36 37 37 33 31 26 21 21 27 31 34 39 44 47 52 60 66 60 56 58 60 59 53
20 19 20 21 19 19 20 21 22 23 22 21 20 21 23 28 32 35 36 35 33 32 29 29 24 21 18 20 24 26 29 34 40 43 48 57 59 56 55 57 60 60 46 38
19 20 20 18 18 19 21 21 23 25 23 22 22 24 26 28 31 29 29 28 26 28 25 17 16 16 18 22 22 28 34 37 38 43 51 51 53 51 55 58 53 37 32 23
20 20 19 19 20 19 20 23 27 28 28 24 24 25 25 28 27 25 23 25 26 19 16 12 13 13 16 21 26 31 32 33 38 44 46 51 52 50 55 46 36 27 23 14
22 22 21 20 22 21 23 26 27 28 28 26 25 24 28 25 22 22 24 19 16 12 8 9 10 13 14 21 24 28 30 34 39 42 44 49 49 46 45 37 25 15 13 3

GFSCGP_500_spd_111.txt.gz
Wind_Speed
15 9 6 3 15 19 23 28 27 28 34 43 51 44 38 48 55 65 45 63 67 67 60 59 54 53 51 42 43 47 49 47 45 45 42 42 41 43 44 46 47 48 47 47
15 8 13 16 15 19 22 24 25 24 30 35 36 32 32 38 40 42 47 47 55 54 46 33 32 33 40 41 40 44 43 44 45 43 43 41 42 42 42 45 47 47 47 47
16 16 22 21 19 19 22 22 18 18 22 27 30 30 30 28 27 40 41 47 27 26 33 31 33 41 38 39 38 40 41 42 41 41 39 38 39 42 43 46 49 49 49 50
20 22 23 23 22 22 22 18 21 25 27 27 27 25 32 31 24 27 24 17 25 32 38 40 35 34 34 33 37 38 37 39 38 37 37 39 42 45 48 50 50 50 50 51
20 22 23 23 18 18 15 22 25 28 32 35 33 32 32 29 27 29 30 28 28 33 36 31 29 28 33 35 35 39 39 39 38 39 40 41 44 46 48 48 50 51 51 52
28 28 27 23 21 20 23 24 27 28 30 37 37 37 36 28 24 25 25 27 29 32 31 28 31 33 32 32 36 38 39 42 42 44 44 45 46 47 48 50 50 52 52 52
26 29 27 27 24 24 23 25 26 28 32 32 33 34 32 27 29 29 28 28 31 34 34 34 34 36 38 39 38 40 41 42 45 45 43 44 44 45 48 51 54 53 53 55
27 29 28 29 27 26 26 27 29 30 32 32 31 36 35 31 31 32 34 34 35 36 37 38 38 37 38 38 38 39 40 42 42 43 44 44 45 47 50 51 52 54 56 56
29 30 27 28 27 28 29 30 30 31 30 30 33 35 34 33 32 33 32 31 33 36 38 40 40 39 40 40 40 39 39 42 43 45 47 49 51 52 52 53 55 55 57 61
19 25 31 30 27 29 29 29 30 32 33 33 34 34 34 30 29 29 29 28 31 34 37 40 41 42 42 40 40 42 43 45 48 50 52 55 56 56 59 60 61 63 64 66
13 14 13 21 31 32 28 30 31 31 33 33 32 33 30 28 28 27 28 28 31 34 36 38 39 40 40 40 43 46 48 50 52 54 57 58 61 64 66 66 67 68 67 66
20 19 18 16 17 23 39 33 31 33 33 33 34 37 33 32 31 32 33 33 35 38 39 40 42 44 46 47 47 49 51 55 58 60 61 61 61 62 63 64 65 67 67 67
25 24 22 16 16 15 17 18 20 21 23 26 32 36 33 33 33 34 34 33 35 36 38 39 40 40 41 44 46 50 52 54 55 56 57 58 59 61 62 64 66 67 67 68
24 31 29 19 17 18 17 18 16 16 15 15 13 16 18 22 26 30 31 32 34 36 39 41 42 43 44 45 46 48 50 52 53 55 57 57 59 61 62 64 66 67 67 67
20 18 18 19 19 18 19 19 20 20 19 19 16 17 19 23 25 25 27 29 32 35 38 42 44 46 48 49 49 51 52 54 55 55 56 58 61 63 65 66 66 66 66 64
21 18 18 18 18 19 19 20 21 21 21 20 20 17 23 26 27 28 29 31 33 35 37 39 41 43 45 46 48 50 51 53 54 56 58 61 62 64 65 66 65 63 64 63
21 19 18 17 17 18 20 19 22 23 24 24 24 24 25 27 29 31 32 33 34 35 37 38 40 43 45 47 48 49 52 54 56 58 60 61 62 61 62 61 59 59 60 61
20 19 20 18 19 22 19 20 22 24 24 25 26 26 28 29 32 33 32 33 34 35 37 39 41 44 46 48 50 51 53 55 57 57 56 54 53 54 53 53 54 57 61 64
18 18 19 20 20 22 20 21 23 23 23 23 26 28 29 30 30 31 30 31 32 35 37 39 41 42 44 47 49 50 51 53 50 47 44 44 45 45 47 52 56 60 64 67
18 17 19 19 21 23 20 21 22 21 21 24 26 27 26 25 25 27 29 31 33 35 35 36 37 38 40 40 40 39 37 34 34 35 38 41 43 48 52 57 61 65 67 63
17 17 19 19 20 21 20 21 20 19 22 23 25 25 25 25 25 25 28 30 32 32 32 33 33 33 32 30 26 25 23 25 31 35 39 43 47 52 56 59 62 60 55 55
20 19 17 17 18 20 19 20 20 20 20 20 22 23 24 25 26 26 28 30 31 32 33 31 28 26 24 20 16 16 22 25 28 35 41 44 46 50 56 58 58 56 55 59
19 18 18 19 18 18 19 20 21 20 20 21 22 24 25 25 26 28 29 31 31 31 26 25 20 21 14 12 12 19 21 28 33 33 36 43 47 52 57 58 54 53 57 47
18 18 18 18 17 18 19 20 20 21 22 21 23 25 27 28 28 28 30 32 30 27 20 19 14 10 11 10 13 17 22 24 28 33 36 42 48 53 54 52 52 51 43 28
18 18 18 18 18 17 20 22 21 20 21 23 25 25 27 29 27 27 30 28 22 20 17 9 8 7 8 10 12 16 20 24 26 29 37 45 50 52 50 49 47 37 20 18
19 18 17 18 17 19 21 19 19 20 23 25 26 26 26 23 24 26 25 20 20 16 10 7 7 7 6 9 14 17 19 22 28 36 39 45 48 50 47 46 29 17 13 7

GFSCGP_500_spd_114.txt.gz
Wind_Speed
27 26 16 16 19 20 17 17 21 27 27 31 39 48 62 71 72 66 66 61 60 51 65 69 70 79 62 55 57 61 62 62 61 60 58 53 50 49 51 52 51 52 52 52
28 21 19 23 24 20 18 15 15 21 21 28 28 34 41 51 65 58 59 61 66 58 42 75 77 74 65 60 62 64 62 60 61 62 57 48 46 50 50 50 51 52 54 52
27 23 25 26 24 18 18 16 14 14 20 16 19 25 28 38 44 47 40 56 63 70 55 60 72 61 64 67 61 59 54 55 45 39 41 46 48 49 50 51 52 51 51 50
29 26 28 27 23 20 20 18 18 18 14 12 17 15 25 30 29 33 35 36 48 55 51 51 67 53 58 51 37 24 26 32 39 44 46 45 45 48 50 50 51 49 49 50
27 27 26 27 19 21 16 23 23 22 19 19 10 21 17 31 31 29 30 28 36 43 43 51 70 51 33 23 23 28 31 33 35 39 41 42 45 48 49 48 48 50 51 52
34 29 29 26 23 21 19 24 25 23 21 24 20 18 17 22 22 23 31 30 24 21 19 24 24 24 31 29 24 29 33 35 37 41 43 44 46 48 47 46 48 49 50 51
34 34 32 31 25 24 23 24 20 20 23 22 21 19 19 26 23 20 16 16 15 21 26 28 27 29 28 29 30 32 35 38 40 42 45 48 48 46 45 46 48 48 49 52
32 33 35 31 28 24 25 23 17 17 19 20 27 27 24 28 24 24 22 22 21 23 25 28 29 31 33 35 38 39 43 44 45 46 49 50 48 48 48 50 49 50 53 53
29 33 33 32 28 27 20 27 23 22 27 19 21 27 27 30 29 25 27 29 27 28 30 33 35 37 39 41 42 43 45 47 47 46 47 48 47 48 49 51 51 52 53 56
25 25 31 28 28 29 30 19 26 28 21 22 17 17 19 26 27 27 29 31 33 36 38 40 42 44 45 46 45 44 44 46 48 47 47 47 48 49 51 54 56 57 59 61
24 23 20 28 32 25 31 31 26 23 27 23 22 14 27 30 25 28 28 28 29 31 33 36 39 42 44 45 45 45 46 47 48 47 47 49 52 55 58 59 61 62 64 65
19 22 26 18 24 30 35 28 26 27 28 28 25 25 24 29 24 27 28 28 29 30 33 35 39 42 43 42 42 42 43 46 48 50 53 56 57 59 60 62 63 62 64 65
20 22 22 23 19 21 25 32 37 28 28 24 23 29 30 31 31 31 31 30 32 33 35 38 40 42 43 44 45 45 46 48 50 51 54 55 57 57 58 60 61 63 66 67
26 24 27 24 19 14 15 17 24 29 28 27 29 29 29 24 28 27 30 31 32 32 32 34 37 40 43 43 43 42 42 44 45 47 50 52 54 57 59 60 61 62 63 65
27 27 25 29 23 25 19 19 21 22 22 20 21 21 24 23 22 22 21 22 23 25 28 30 32 35 37 39 40 42 44 46 47 49 50 51 53 55 57 59 62 64 67 70
29 22 18 18 17 16 17 18 19 19 18 19 20 19 24 20 22 21 23 24 26 26 28 30 31 33 35 36 38 40 42 43 45 47 48 51 53 56 59 62 65 67 69 69
26 21 18 19 20 21 20 19 20 20 20 21 20 24 20 23 24 25 26 28 30 31 31 33 34 35 36 37 38 39 40 43 45 48 51 55 57 60 63 65 66 65 62 61
24 23 23 20 21 22 20 20 20 20 19 20 21 23 24 25 27 28 29 30 31 32 34 35 36 37 37 38 39 40 43 45 48 51 54 58 59 59 57 54 54 56 58 60
27 26 22 21 22 21 21 20 20 19 18 20 23 23 24 25 27 29 29 31 32 33 34 35 36 36 37 38 39 41 44 47 50 51 49 45 44 46 49 51 54 58 60 64
24 23 20 19 19 19 16 17 17 18 20 22 23 22 22 25 28 29 29 30 32 33 33 34 35 34 34 36 38 38 40 40 36 34 35 37 40 43 47 52 56 59 62 66
23 21 19 20 20 20 18 19 20 20 24 21 21 21 22 24 26 28 28 30 31 32 32 31 30 29 30 30 30 31 29 27 27 28 31 35 41 43 46 50 55 59 62 63
24 23 21 19 19 20 19 19 21 20 21 21 20 21 21 22 24 26 29 29 29 28 28 27 26 28 29 28 26 24 22 20 22 26 30 32 36 41 49 56 59 60 60 59
25 22 19 21 21 19 19 20 20 21 21 21 21 21 23 24 25 26 27 26 25 25 26 26 27 26 24 22 19 15 13 16 20 23 27 31 40 44 51 58 57 59 61 55
23 21 21 21 21 19 21 22 21 20 21 21 21 22 24 25 26 28 28 26 26 27 29 25 22 19 18 13 9 9 12 15 19 21 26 35 38 45 53 51 53 40 32 29
21 21 21 20 19 20 22 21 20 20 21 21 21 23 24 24 27 28 27 26 26 27 23 19 18 13 5 6 8 9 11 16 17 21 28 34 37 44 45 46 40 33 25 19
21 19 19 19 19 22 21 20 20 20 20 20 21 22 22 26 26 28 28 25 23 19 17 12 8 8 7 6 5 9 10 14 18 21 27 31 36 42 41 35 34 26 22 15

GFSCGP_500_spd_117.txt.gz
Wind_Speed
31 35 36 27 29 31 29 25 22 24 21 25 29 36 42 39 47 61 47 63 70 68 67 61 55 62 63 66 64 65 63 62 60 59 59 60 58 56 54 56 55 54 52 50
36 34 27 32 34 34 33 27 23 23 18 22 26 30 34 34 41 43 54 63 67 69 59 64 60 61 67 69 72 72 68 66 66 66 64 64 63 61 58 58 55 53 52 54
36 27 33 37 33 35 31 23 21 19 16 17 23 29 33 35 36 38 46 52 63 74 61 61 68 51 70 77 73 66 63 66 70 73 70 67 65 62 62 63 63 54 53 55
35 33 39 36 34 31 28 23 21 20 17 15 24 20 22 21 26 35 35 42 43 60 65 56 64 74 55 55 62 71 75 75 75 69 66 63 58 62 64 52 48 49 50 50
36 35 38 36 33 28 24 19 18 19 22 16 23 32 17 22 22 22 33 27 29 33 57 54 57 67 68 64 46 64 70 67 58 60 56 60 41 35 34 41 43 48 48 46
32 34 34 32 30 27 21 19 20 19 20 24 18 21 23 21 31 23 25 25 32 32 35 40 49 66 64 55 53 64 51 50 53 38 35 25 32 37 40 42 43 44 46 47
33 34 37 33 31 28 24 22 18 19 22 24 17 24 23 24 28 23 32 28 25 23 23 38 42 50 47 48 66 37 51 27 25 27 29 31 35 39 43 44 46 47 47 51
27 38 34 34 33 24 26 24 19 19 15 16 19 25 28 37 21 22 21 20 23 20 22 19 21 30 30 35 22 23 23 25 29 31 35 40 44 46 47 48 48 48 51 54
31 26 29 33 35 29 21 29 22 22 25 24 22 21 28 38 19 14 17 20 16 16 19 24 25 23 30 28 27 30 31 32 35 38 43 48 50 52 51 51 53 55 57 55
32 29 28 31 32 38 30 24 27 28 21 26 25 36 20 30 35 29 22 23 22 22 20 21 25 31 32 32 33 34 35 38 42 45 49 51 53 55 56 57 58 57 57 58
36 31 29 32 38 38 35 30 35 27 28 19 18 23 24 25 27 25 24 25 26 27 28 29 31 32 34 37 39 40 42 45 47 50 53 56 56 57 60 58 57 58 60 63
26 25 29 23 19 32 33 34 24 27 31 32 28 23 29 21 32 22 26 27 28 28 29 31 32 36 38 41 44 45 47 48 49 49 51 52 51 52 55 57 58 62 63 65
31 32 30 31 27 19 33 37 40 36 35 24 27 21 35 25 22 18 24 24 28 29 31 33 34 36 38 40 43 44 43 46 46 47 49 51 53 55 57 60 62 62 60 62
39 31 29 26 25 21 21 23 36 33 35 25 33 34 29 35 33 34 30 29 33 34 35 35 36 37 40 42 43 46 46 49 49 49 51 52 52 51 53 54 56 57 58 60
35 29 28 30 27 22 20 18 19 20 23 27 28 31 30 33 30 38 28 31 33 36 38 37 37 40 40 40 41 45 44 44 42 43 44 46 49 50 51 51 53 56 59 62
33 29 29 26 27 16 22 15 17 15 16 19 27 24 22 20 19 20 23 26 27 26 22 24 27 28 28 29 32 33 35 36 37 40 41 44 46 49 51 54 57 60 62 64
27 33 30 23 21 20 24 18 18 22 22 20 19 21 26 23 23 26 25 25 26 25 25 27 29 31 31 32 33 33 34 36 38 40 42 44 46 50 53 55 57 58 56 57
39 31 26 22 20 21 25 22 22 20 21 19 25 23 22 25 24 27 26 26 26 28 29 31 31 32 32 33 34 35 36 38 39 41 43 46 47 48 49 49 48 49 52 55
35 32 27 23 21 26 19 17 21 22 21 22 25 22 25 24 26 27 27 27 28 29 31 31 31 31 31 32 32 34 36 37 39 41 42 42 40 40 40 41 46 50 54 57
33 29 25 22 24 21 25 20 23 21 22 23 24 23 22 23 29 25 23 28 27 28 28 28 29 29 30 30 32 33 35 36 36 36 37 34 32 34 38 43 46 51 57 61
31 27 23 23 24 24 18 21 22 21 23 21 21 21 20 23 24 25 24 26 27 28 28 27 28 28 29 30 30 31 31 31 31 30 27 25 30 33 37 43 49 53 60 65
27 25 27 23 25 21 21 21 22 20 20 20 19 19 20 22 24 24 23 23 24 25 25 25 24 25 27 27 28 29 29 27 24 20 21 24 28 32 39 43 48 56 51 50
27 26 24 24 23 19 20 19 20 20 20 20 21 21 22 22 22 23 24 24 25 25 25 24 25 26 27 28 28 28 23 20 17 17 19 22 27 33 38 43 49 44 48 46
23 23 23 22 23 19 20 19 19 20 20 21 22 22 22 22 23 24 25 27 29 26 25 26 26 27 26 27 25 22 19 15 13 17 19 22 27 32 37 43 41 37 39 33
26 25 24 25 21 23 23 22 20 20 21 21 22 22 22 22 24 24 25 30 31 27 27 28 27 26 24 23 21 17 11 12 14 15 17 21 27 30 38 40 32 30 33 26
20 23 23 23 24 25 22 20 20 20 21 21 22 22 21 21 21 24 29 31 29 27 28 28 23 22 21 18 12 10 10 10 10 12 16 21 25 29 36 34 28 25 30 21

GFSCGP_500_spd_123.txt.gz
Wind_Speed
47 46 45 38 37 35 38 39 37 34 32 33 35 36 38 38 40 43 46 45 52 64 66 69 68 63 63 61 57 54 56 60 65 66 64 63 66 68 38 46 38 33 39 43
47 49 40 32 34 36 39 40 38 33 17 24 29 34 34 36 37 40 41 41 41 42 67 68 71 70 67 66 64 63 61 65 68 63 66 67 71 56 35 29 24 37 41 45
43 39 33 32 35 38 41 41 36 31 23 26 26 29 31 33 31 29 34 37 38 41 40 57 66 70 71 72 67 63 65 66 70 69 65 56 60 61 28 32 24 46 45 45
36 36 37 34 34 37 39 38 35 36 35 39 33 32 26 27 27 27 31 32 32 40 44 45 57 65 65 71 75 68 62 62 67 67 72 64 65 55 73 72 51 56 58 47
39 39 38 35 34 35 35 35 34 33 37 36 35 35 29 23 24 27 29 28 30 29 39 40 48 57 63 59 52 59 66 72 73 67 59 41 46 60 54 56 55 58 55 60
35 33 35 31 33 31 30 27 25 30 36 42 32 30 29 24 23 27 25 32 25 22 25 40 48 46 46 48 56 48 56 49 59 65 58 59 44 40 43 39 45 44 55 57
38 37 34 29 31 21 33 33 35 30 35 39 23 24 22 24 26 22 20 24 24 32 29 17 30 38 41 36 47 56 61 62 58 52 49 57 57 47 50 40 39 45 47 50
37 37 37 35 35 37 35 39 40 39 35 18 10 18 12 15 21 25 22 27 27 23 26 28 18 27 30 29 34 40 46 46 48 56 61 53 59 51 43 45 40 39 41 49
33 32 31 33 37 34 28 39 37 30 19 20 17 23 20 24 28 27 27 27 19 21 21 26 26 29 27 31 32 40 43 43 39 45 46 45 45 45 44 37 38 32 39 47
38 33 33 35 26 40 32 24 34 32 34 29 28 30 19 26 28 32 31 27 21 17 25 22 21 24 27 35 36 38 44 34 36 39 37 32 35 36 31 31 38 39 38 42
40 34 35 43 38 34 38 29 29 34 36 33 28 31 32 16 15 23 29 29 20 20 18 19 22 24 27 32 35 32 31 29 38 46 28 29 29 32 34 35 36 40 40 40
44 37 42 38 45 41 40 36 36 41 40 39 38 35 31 31 29 23 15 30 19 18 20 20 25 27 24 28 33 28 24 24 28 22 26 33 37 38 37 36 38 40 43 45
40 41 35 41 41 39 37 43 43 38 38 38 37 28 40 30 30 29 30 23 12 12 18 21 24 25 23 26 31 32 28 29 30 30 34 38 38 39 41 41 43 45 46 47
41 34 34 33 37 35 28 43 43 32 42 41 38 35 29 18 21 31 34 37 13 11 15 16 19 22 25 26 27 31 35 34 35 36 38 41 40 44 43 44 45 45 46 47
40 36 32 32 34 32 27 42 45 45 30 30 37 41 35 25 27 20 29 20 6 11 15 18 18 25 28 29 31 33 34 37 38 37 38 39 38 41 42 42 44 44 46 47
38 39 34 30 33 34 29 32 41 44 42 35 34 30 42 26 24 26 29 21 19 17 15 12 15 19 19 23 29 35 36 37 39 40 40 39 39 41 43 41 42 42 42 45
41 38 34 19 34 39 37 30 36 44 37 31 21 28 28 36 24 22 21 21 21 14 18 16 18 18 21 24 24 24 27 29 32 33 33 35 36 37 37 37 39 40 41 44
40 36 26 32 18 25 35 32 33 38 32 29 27 29 30 27 24 20 23 16 12 20 22 21 23 24 24 26 29 31 31 31 32 32 33 33 34 34 35 35 36 38 40 42
43 33 26 23 24 25 22 28 28 22 26 26 24 21 20 18 13 14 17 26 28 25 26 26 27 27 28 29 30 32 32 32 31 31 31 31 31 31 32 33 33 35 31 32
36 33 32 30 20 22 21 19 29 24 21 16 19 19 18 16 18 20 21 22 26 28 27 27 26 26 27 28 30 30 30 29 29 29 28 28 29 28 29 29 24 26 29 33
33 33 35 28 25 20 18 23 27 24 21 15 16 16 17 18 18 20 22 24 25 26 25 25 24 23 21 24 27 29 30 30 29 29 29 29 27 26 23 20 23 26 30 34
37 30 29 30 23 23 22 21 20 14 12 14 16 16 17 19 19 19 21 23 24 25 25 24 23 23 23 24 26 27 28 29 29 28 26 23 22 20 18 21 23 27 32 37
34 39 35 31 30 22 19 19 16 14 13 17 17 16 17 18 20 21 21 22 23 25 25 24 25 25 26 28 29 29 27 27 25 23 22 21 17 16 18 19 23 28 31 23
43 43 28 21 23 23 22 19 18 18 18 17 16 16 16 16 17 19 20 21 22 24 25 26 28 29 31 31 29 27 25 24 22 21 18 14 13 15 15 17 23 26 22 17
22 30 28 17 16 20 17 18 19 16 15 15 15 14 15 16 17 19 21 22 23 24 24 25 28 30 31 30 26 25 25 22 17 15 14 11 12 11 13 17 22 24 18 14
15 13 14 16 16 17 16 15 15 15 15 16 16 16 17 17 19 20 22 22 22 22 23 27 29 29 27 23 23 23 18 15 12 13 10 9 9 11 13 16 23 23 16 11